Time,TemperatureF,DewpointF,PressureIn,WindDirection,WindDirectionDegrees,WindSpeedMPH,WindSpeedGustMPH,Humidity,HourlyPrecipIn,Conditions,Clouds,dailyrainin,SoftwareType,DateUTC
2013-06-30 00:01:00,71.4,70.0,29.72,WNW,294,0.0,0.0,95,13.06,,,52.44,meteohub,2013-06-30 04:01:00,
2013-06-30 00:02:00,71.4,70.0,29.73,WNW,294,0.0,0.0,95,13.06,,,52.44,meteohub,2013-06-30 04:02:00,
2013-06-30 00:03:00,71.4,70.0,29.73,WNW,294,0.0,0.0,95,13.06,,,52.44,meteohub,2013-06-30 04:03:00,
2013-06-30 00:08:00,71.4,70.0,29.73,WNW,294,0.0,0.0,95,12.58,,,53.16,meteohub,2013-06-30 04:08:00,
2013-06-30 00:13:00,71.4,70.0,29.73,WNW,294,0.0,0.0,95,12.82,,,54.60,meteohub,2013-06-30 04:13:00,
2013-06-30 00:18:00,71.4,70.0,29.73,WNW,294,0.0,0.0,95,13.06,,,55.92,meteohub,2013-06-30 04:18:00,
2013-06-30 00:24:00,71.4,69.6,29.73,WNW,294,0.0,0.0,94,13.12,,,56.64,meteohub,2013-06-30 04:24:00,
2013-06-30 00:29:00,71.4,70.0,29.73,WNW,294,0.0,0.0,95,13.36,,,58.12,meteohub,2013-06-30 04:29:00,
2013-06-30 00:34:00,71.4,69.6,29.73,WNW,294,0.0,0.0,94,13.84,,,59.56,meteohub,2013-06-30 04:34:00,
2013-06-30 00:39:00,71.4,70.0,29.73,WNW,294,0.0,0.0,95,13.36,,,60.28,meteohub,2013-06-30 04:39:00,
2013-06-30 00:44:00,71.4,70.0,29.73,WNW,294,0.0,0.0,95,13.72,,,61.84,meteohub,2013-06-30 04:44:00,
2013-06-30 00:49:00,71.4,70.0,29.73,WNW,294,0.0,0.0,95,13.36,,,62.56,meteohub,2013-06-30 04:49:00,
2013-06-30 00:54:00,71.2,69.8,29.73,WNW,294,0.0,0.0,95,13.52,,,63.92,meteohub,2013-06-30 04:54:00,
2013-06-30 01:00:00,71.2,69.8,29.73,WNW,294,0.0,0.0,95,13.76,,,66.08,meteohub,2013-06-30 05:00:00,
2013-06-30 01:05:00,71.2,69.8,29.73,WNW,294,0.0,0.0,95,13.64,,,67.52,meteohub,2013-06-30 05:05:00,
2013-06-30 01:10:00,71.2,69.8,29.73,WNW,294,0.0,0.0,95,14.00,,,68.36,meteohub,2013-06-30 05:10:00,
2013-06-30 01:15:00,71.2,69.8,29.73,WNW,294,0.0,0.0,95,13.64,,,69.80,meteohub,2013-06-30 05:15:00,
2013-06-30 01:20:00,71.2,69.8,29.73,WNW,294,0.0,0.0,95,13.84,,,71.24,meteohub,2013-06-30 05:20:00,
2013-06-30 01:25:00,71.2,69.8,29.73,WNW,294,0.0,0.0,95,13.36,,,71.96,meteohub,2013-06-30 05:25:00,
2013-06-30 01:31:00,71.1,69.6,29.73,WNW,294,0.0,0.0,95,13.48,,,73.28,meteohub,2013-06-30 05:31:00,
2013-06-30 01:36:00,71.1,69.6,29.73,WNW,294,0.0,0.0,95,13.84,,,74.84,meteohub,2013-06-30 05:36:00,
2013-06-30 01:41:00,71.1,69.6,29.73,WNW,294,0.0,0.0,95,13.48,,,75.56,meteohub,2013-06-30 05:41:00,
2013-06-30 01:46:00,71.1,69.6,29.73,WNW,294,0.0,0.0,95,13.72,,,77.00,meteohub,2013-06-30 05:46:00,
2013-06-30 01:51:00,70.9,69.4,29.73,WNW,294,0.0,0.0,95,12.87,,,77.27,meteohub,2013-06-30 05:51:00,
2013-06-30 01:56:00,70.9,69.4,29.74,WNW,294,0.0,0.0,95,11.67,,,77.27,meteohub,2013-06-30 05:56:00,
2013-06-30 02:01:00,70.5,69.1,29.74,WNW,294,0.0,0.0,95,10.47,,,77.27,meteohub,2013-06-30 06:01:00,
2013-06-30 02:07:00,70.5,69.1,29.74,WNW,294,0.0,0.0,95,9.27,,,77.27,meteohub,2013-06-30 06:07:00,
2013-06-30 02:12:00,70.5,69.1,29.74,WNW,294,0.0,0.0,95,8.19,,,77.27,meteohub,2013-06-30 06:12:00,
2013-06-30 02:17:00,70.3,68.9,29.74,WNW,294,0.0,0.0,95,6.99,,,77.27,meteohub,2013-06-30 06:17:00,
2013-06-30 02:22:00,70.3,68.9,29.74,WNW,294,0.0,0.0,95,5.91,,,77.27,meteohub,2013-06-30 06:22:00,
2013-06-30 02:27:00,70.3,68.9,29.74,WNW,294,0.0,0.0,95,4.59,,,77.27,meteohub,2013-06-30 06:27:00,
2013-06-30 02:32:00,70.2,68.7,29.75,WNW,294,0.0,0.0,95,3.51,,,77.27,meteohub,2013-06-30 06:32:00,
2013-06-30 02:37:00,70.2,68.9,29.75,WNW,294,0.0,0.0,96,2.31,,,77.27,meteohub,2013-06-30 06:37:00,
2013-06-30 02:42:00,70.0,68.7,29.75,WNW,294,0.0,0.0,96,1.11,,,77.27,meteohub,2013-06-30 06:42:00,
2013-06-30 02:47:00,70.0,68.7,29.75,WNW,294,0.0,0.0,96,0.12,,,77.27,meteohub,2013-06-30 06:47:00,
2013-06-30 02:52:00,70.0,68.7,29.75,WNW,294,0.0,0.0,96,0.46,,,77.73,meteohub,2013-06-30 06:52:00,
2013-06-30 02:57:00,69.8,68.5,29.75,WNW,294,0.0,0.0,96,1.06,,,78.33,meteohub,2013-06-30 06:57:00,
2013-06-30 03:02:00,69.8,68.5,29.75,WNW,294,0.0,0.0,96,1.06,,,78.33,meteohub,2013-06-30 07:02:00,
2013-06-30 03:07:00,69.6,68.4,29.75,WNW,294,0.0,0.0,96,1.06,,,78.33,meteohub,2013-06-30 07:07:00,
2013-06-30 03:12:00,69.6,68.4,29.75,WNW,294,0.0,0.0,96,1.06,,,78.33,meteohub,2013-06-30 07:12:00,
2013-06-30 03:17:00,69.6,68.4,29.74,WNW,294,0.0,0.0,96,1.76,,,79.03,meteohub,2013-06-30 07:17:00,
2013-06-30 03:22:00,69.4,68.2,29.74,WNW,294,0.0,0.0,96,1.89,,,79.16,meteohub,2013-06-30 07:22:00,
2013-06-30 03:27:00,69.4,68.2,29.74,WNW,294,0.0,0.0,96,1.89,,,79.16,meteohub,2013-06-30 07:27:00,
2013-06-30 03:33:00,69.3,68.0,29.74,WNW,294,0.0,0.0,96,1.91,,,79.18,meteohub,2013-06-30 07:33:00,
2013-06-30 03:38:00,69.3,68.0,29.74,WNW,294,0.0,0.0,96,1.91,,,79.18,meteohub,2013-06-30 07:38:00,
2013-06-30 03:43:00,69.1,67.8,29.74,WNW,294,0.0,0.0,96,1.91,,,79.18,meteohub,2013-06-30 07:43:00,
2013-06-30 03:48:00,69.1,67.8,29.74,WNW,294,0.0,0.0,96,1.91,,,79.18,meteohub,2013-06-30 07:48:00,
2013-06-30 03:53:00,68.7,67.5,29.73,WNW,294,0.0,0.0,96,0.86,,,79.18,meteohub,2013-06-30 07:53:00,
2013-06-30 03:58:00,68.7,67.5,29.74,WNW,294,0.0,0.0,96,0.85,,,79.18,meteohub,2013-06-30 07:58:00,
2013-06-30 04:04:00,68.5,67.6,29.74,WNW,294,0.0,0.0,97,0.85,,,79.18,meteohub,2013-06-30 08:04:00,
2013-06-30 04:09:00,68.5,67.6,29.74,WNW,294,0.0,0.0,97,0.85,,,79.18,meteohub,2013-06-30 08:09:00,
2013-06-30 04:14:00,68.5,67.6,29.74,WNW,294,0.0,0.0,97,0.75,,,79.18,meteohub,2013-06-30 08:14:00,
2013-06-30 04:19:00,68.5,67.6,29.75,WNW,294,0.0,0.0,97,0.64,,,79.68,meteohub,2013-06-30 08:19:00,
2013-06-30 04:24:00,68.5,67.6,29.75,WNW,294,0.0,0.0,97,1.34,,,80.50,meteohub,2013-06-30 08:24:00,
2013-06-30 04:29:00,68.4,67.5,29.75,WNW,294,0.0,0.0,97,1.34,,,80.50,meteohub,2013-06-30 08:29:00,
2013-06-30 04:35:00,68.4,67.5,29.75,WNW,294,0.0,0.0,97,1.32,,,80.50,meteohub,2013-06-30 08:35:00,
2013-06-30 04:40:00,68.4,67.5,29.75,WNW,294,0.0,0.0,97,1.32,,,80.50,meteohub,2013-06-30 08:40:00,
2013-06-30 04:45:00,68.2,67.3,29.75,WNW,294,0.0,0.0,97,1.32,,,80.50,meteohub,2013-06-30 08:45:00,
2013-06-30 04:50:00,68.2,67.3,29.75,WNW,294,0.0,0.0,97,1.47,,,80.65,meteohub,2013-06-30 08:50:00,
2013-06-30 04:55:00,68.2,67.3,29.76,WNW,294,0.0,0.0,97,1.47,,,80.65,meteohub,2013-06-30 08:55:00,
2013-06-30 05:00:00,68.2,67.6,29.76,WNW,294,0.0,0.0,98,1.47,,,80.65,meteohub,2013-06-30 09:00:00,
2013-06-30 05:06:00,68.0,67.5,29.76,WNW,294,0.0,0.0,98,1.47,,,80.65,meteohub,2013-06-30 09:06:00,
2013-06-30 05:11:00,68.0,67.5,29.76,WNW,294,0.0,0.0,98,1.44,,,80.65,meteohub,2013-06-30 09:11:00,
2013-06-30 05:16:00,68.0,67.5,29.76,WNW,294,0.0,0.0,98,1.21,,,81.19,meteohub,2013-06-30 09:16:00,
2013-06-30 05:21:00,67.8,67.3,29.76,WNW,294,0.0,0.0,98,2.00,,,82.50,meteohub,2013-06-30 09:21:00,
2013-06-30 05:26:00,67.8,67.3,29.76,WNW,294,0.0,0.0,98,3.44,,,83.94,meteohub,2013-06-30 09:26:00,
2013-06-30 05:31:00,67.8,67.3,29.77,WNW,294,0.0,0.0,98,4.28,,,84.78,meteohub,2013-06-30 09:31:00,
2013-06-30 05:36:00,67.8,67.3,29.77,WNW,294,0.0,0.0,98,5.72,,,86.22,meteohub,2013-06-30 09:36:00,
2013-06-30 05:42:00,67.8,67.3,29.77,WNW,294,0.0,0.0,98,6.44,,,86.94,meteohub,2013-06-30 09:42:00,
2013-06-30 05:46:00,68.2,67.6,29.77,WNW,294,0.0,0.0,98,7.43,,,87.93,meteohub,2013-06-30 09:46:00,
2013-06-30 05:52:00,68.2,67.6,29.78,WNW,294,0.0,0.0,98,8.11,,,88.76,meteohub,2013-06-30 09:52:00,
2013-06-30 05:57:00,68.4,67.8,29.78,WNW,294,0.0,0.0,98,8.68,,,89.33,meteohub,2013-06-30 09:57:00,
2013-06-30 06:02:00,68.4,67.8,29.78,WNW,294,0.0,0.0,98,8.88,,,89.53,meteohub,2013-06-30 10:02:00,
2013-06-30 06:07:00,68.5,68.0,29.79,WNW,294,0.0,0.0,98,8.88,,,89.53,meteohub,2013-06-30 10:07:00,
2013-06-30 06:12:00,68.5,68.0,29.79,WNW,294,0.0,0.0,98,8.76,,,89.53,meteohub,2013-06-30 10:12:00,
2013-06-30 06:17:00,68.7,68.2,29.79,WNW,294,0.0,0.0,98,7.71,,,89.61,meteohub,2013-06-30 10:17:00,
2013-06-30 06:22:00,68.7,68.4,29.80,WNW,294,0.0,0.0,99,6.78,,,89.76,meteohub,2013-06-30 10:22:00,
2013-06-30 06:27:00,69.1,68.5,29.79,WNW,294,0.0,0.0,98,5.58,,,89.76,meteohub,2013-06-30 10:27:00,
2013-06-30 06:32:00,69.1,68.5,29.80,WNW,294,0.0,0.0,98,4.38,,,89.76,meteohub,2013-06-30 10:32:00,
2013-06-30 06:38:00,69.3,68.9,29.80,WNW,294,0.0,0.0,99,3.18,,,89.76,meteohub,2013-06-30 10:38:00,
2013-06-30 06:43:00,69.3,68.9,29.81,WNW,294,0.0,0.0,99,2.49,,,89.76,meteohub,2013-06-30 10:43:00,
2013-06-30 06:48:00,69.4,69.1,29.81,WNW,294,0.0,0.0,99,2.18,,,90.47,meteohub,2013-06-30 10:48:00,
2013-06-30 06:53:00,69.4,68.9,29.81,WNW,294,0.0,0.0,98,2.10,,,90.86,meteohub,2013-06-30 10:53:00,
2013-06-30 06:58:00,69.6,69.1,29.81,WNW,294,0.0,0.0,98,2.88,,,92.41,meteohub,2013-06-30 10:58:00,
2013-06-30 07:03:00,69.6,69.1,29.81,WNW,294,0.0,0.0,98,3.25,,,92.78,meteohub,2013-06-30 11:03:00,
2013-06-30 07:08:00,70.0,69.4,29.81,WNW,294,0.0,0.0,98,4.32,,,93.85,meteohub,2013-06-30 11:08:00,
2013-06-30 07:14:00,70.0,69.4,29.81,WNW,294,0.0,0.0,98,5.37,,,94.90,meteohub,2013-06-30 11:14:00,
2013-06-30 07:19:00,70.2,69.6,29.81,WNW,294,0.0,0.0,98,5.81,,,95.52,meteohub,2013-06-30 11:19:00,
2013-06-30 07:24:00,70.3,69.8,29.82,WNW,294,0.0,0.0,98,6.92,,,96.68,meteohub,2013-06-30 11:24:00,
2013-06-30 07:29:00,70.3,69.8,29.82,WNW,294,0.0,0.0,98,7.78,,,97.54,meteohub,2013-06-30 11:29:00,
2013-06-30 07:34:00,70.5,70.0,29.82,WNW,294,0.0,0.0,98,7.78,,,97.54,meteohub,2013-06-30 11:34:00,
2013-06-30 07:39:00,70.7,69.8,29.83,WNW,294,0.0,0.0,97,7.78,,,97.54,meteohub,2013-06-30 11:39:00,
2013-06-30 07:45:00,71.1,70.2,29.83,WNW,294,0.0,0.0,97,7.78,,,97.54,meteohub,2013-06-30 11:45:00,
2013-06-30 07:50:00,71.2,70.3,29.83,WNW,294,0.0,0.0,97,6.09,,,97.54,meteohub,2013-06-30 11:50:00,
2013-06-30 07:55:00,71.2,70.0,29.83,WNW,294,0.0,0.0,96,5.01,,,97.54,meteohub,2013-06-30 11:55:00,
2013-06-30 08:00:00,71.4,70.2,29.83,WNW,294,0.0,0.0,96,4.06,,,97.54,meteohub,2013-06-30 12:00:00,
2013-06-30 08:05:00,71.6,70.3,29.83,WNW,294,0.0,0.0,96,3.52,,,97.54,meteohub,2013-06-30 12:05:00,
2013-06-30 08:11:00,71.8,70.5,29.83,WNW,294,0.0,0.0,96,2.42,,,97.54,meteohub,2013-06-30 12:11:00,
2013-06-30 08:16:00,72.0,70.7,29.83,WNW,294,0.0,0.0,96,1.48,,,97.54,meteohub,2013-06-30 12:16:00,
2013-06-30 08:21:00,72.0,70.5,29.84,WNW,294,0.0,0.0,95,0.70,,,97.54,meteohub,2013-06-30 12:21:00,
2013-06-30 08:26:00,72.1,70.7,29.84,WNW,294,0.0,0.0,95,0.00,,,97.54,meteohub,2013-06-30 12:26:00,
2013-06-30 08:31:00,72.1,70.7,29.84,WNW,294,0.0,0.0,95,0.00,,,97.54,meteohub,2013-06-30 12:31:00,
2013-06-30 08:36:00,72.1,70.7,29.84,WNW,294,0.0,0.0,95,0.00,,,97.54,meteohub,2013-06-30 12:36:00,
2013-06-30 08:42:00,72.1,70.7,29.84,WNW,294,0.0,0.0,95,0.00,,,97.54,meteohub,2013-06-30 12:42:00,
2013-06-30 08:47:00,72.1,70.3,29.84,WNW,294,0.0,0.0,94,0.15,,,97.69,meteohub,2013-06-30 12:47:00,
2013-06-30 08:52:00,72.0,70.2,29.84,WNW,294,0.0,0.0,94,0.15,,,97.69,meteohub,2013-06-30 12:52:00,
2013-06-30 08:57:00,72.1,70.7,29.84,WNW,294,0.0,0.0,95,0.15,,,97.69,meteohub,2013-06-30 12:57:00,
2013-06-30 09:02:00,72.1,70.3,29.84,WNW,294,0.0,0.0,94,0.15,,,97.69,meteohub,2013-06-30 13:02:00,
2013-06-30 09:07:00,72.1,70.7,29.84,WNW,294,0.0,0.0,95,0.15,,,97.69,meteohub,2013-06-30 13:07:00,
2013-06-30 09:12:00,72.3,70.9,29.84,WNW,294,0.0,0.0,95,0.15,,,97.69,meteohub,2013-06-30 13:12:00,
2013-06-30 09:17:00,72.3,70.5,29.84,WNW,294,0.0,0.0,94,0.15,,,97.69,meteohub,2013-06-30 13:17:00,
2013-06-30 09:22:00,72.3,70.5,29.84,WNW,294,0.0,0.0,94,0.15,,,97.69,meteohub,2013-06-30 13:22:00,
2013-06-30 09:27:00,72.3,70.5,29.84,WNW,294,0.0,0.0,94,0.15,,,97.69,meteohub,2013-06-30 13:27:00,
2013-06-30 09:32:00,72.5,70.7,29.84,WNW,294,0.0,0.0,94,0.15,,,97.69,meteohub,2013-06-30 13:32:00,
2013-06-30 09:37:00,72.9,71.1,29.84,WNW,294,0.0,0.0,94,0.15,,,97.69,meteohub,2013-06-30 13:37:00,
2013-06-30 09:42:00,72.9,70.7,29.84,WNW,294,0.0,0.0,93,0.11,,,97.69,meteohub,2013-06-30 13:42:00,
2013-06-30 09:47:00,72.9,71.1,29.84,WNW,294,0.0,0.0,94,0.00,,,97.69,meteohub,2013-06-30 13:47:00,
2013-06-30 09:52:00,73.0,70.9,29.84,WNW,294,0.0,0.0,93,0.00,,,97.69,meteohub,2013-06-30 13:52:00,
2013-06-30 09:57:00,73.0,70.9,29.84,WNW,294,0.0,0.0,93,0.00,,,97.69,meteohub,2013-06-30 13:57:00,
2013-06-30 10:02:00,73.2,71.1,29.84,WNW,294,0.0,0.0,93,0.00,,,97.69,meteohub,2013-06-30 14:02:00,
2013-06-30 10:07:00,73.4,71.2,29.84,WNW,294,0.0,0.0,93,0.00,,,97.69,meteohub,2013-06-30 14:07:00,
2013-06-30 10:13:00,73.4,71.2,29.84,WNW,294,0.0,0.0,93,0.00,,,97.69,meteohub,2013-06-30 14:13:00,
2013-06-30 10:18:00,73.6,71.4,29.85,WNW,294,0.0,0.0,93,0.00,,,97.69,meteohub,2013-06-30 14:18:00,
2013-06-30 10:23:00,73.9,71.4,29.85,WNW,294,0.0,0.0,92,0.00,,,97.69,meteohub,2013-06-30 14:23:00,
2013-06-30 10:28:00,74.1,71.6,29.85,WNW,294,0.0,0.0,92,0.00,,,97.69,meteohub,2013-06-30 14:28:00,
2013-06-30 10:33:00,74.5,72.0,29.85,WNW,294,0.0,0.0,92,0.00,,,97.69,meteohub,2013-06-30 14:33:00,
2013-06-30 10:38:00,74.7,71.6,29.85,WNW,294,0.0,0.0,90,0.00,,,97.69,meteohub,2013-06-30 14:38:00,
2013-06-30 10:43:00,74.7,71.2,29.85,WNW,294,0.0,0.0,89,0.00,,,97.69,meteohub,2013-06-30 14:43:00,
2013-06-30 10:49:00,74.7,71.8,29.86,WNW,294,0.0,0.0,91,0.00,,,97.69,meteohub,2013-06-30 14:49:00,
2013-06-30 10:54:00,74.5,71.6,29.86,WNW,294,0.0,0.0,91,0.00,,,97.69,meteohub,2013-06-30 14:54:00,
2013-06-30 10:59:00,74.1,71.2,29.86,WNW,294,0.0,0.0,91,0.00,,,97.69,meteohub,2013-06-30 14:59:00,
2013-06-30 11:04:00,74.1,71.6,29.86,WNW,294,0.0,0.0,92,0.00,,,97.69,meteohub,2013-06-30 15:04:00,
2013-06-30 11:09:00,74.3,71.4,29.86,WNW,294,0.0,0.0,91,0.00,,,97.69,meteohub,2013-06-30 15:09:00,
2013-06-30 11:14:00,74.5,71.6,29.86,WNW,294,0.0,0.0,91,0.00,,,97.69,meteohub,2013-06-30 15:14:00,
2013-06-30 11:19:00,74.5,71.4,29.86,WNW,294,0.0,0.0,90,0.00,,,97.69,meteohub,2013-06-30 15:19:00,
2013-06-30 11:24:00,74.8,72.3,29.86,WNW,294,0.0,0.0,92,0.00,,,97.69,meteohub,2013-06-30 15:24:00,
2013-06-30 11:30:00,75.2,71.8,29.85,WNW,294,0.0,0.0,89,0.00,,,97.69,meteohub,2013-06-30 15:30:00,
2013-06-30 11:35:00,75.6,72.1,29.86,WNW,294,0.0,0.0,89,0.00,,,97.69,meteohub,2013-06-30 15:35:00,
2013-06-30 11:40:00,75.6,72.1,29.85,WNW,294,0.0,0.0,89,0.00,,,97.69,meteohub,2013-06-30 15:40:00,
2013-06-30 11:45:00,75.7,72.3,29.85,WNW,294,0.0,0.0,89,0.00,,,97.69,meteohub,2013-06-30 15:45:00,
2013-06-30 11:50:00,75.7,72.3,29.85,WNW,294,0.0,0.0,89,0.00,,,97.69,meteohub,2013-06-30 15:50:00,
2013-06-30 11:56:00,75.9,73.0,29.86,WNW,294,0.0,0.0,91,0.00,,,97.69,meteohub,2013-06-30 15:56:00,
2013-06-30 12:01:00,76.5,73.2,29.86,WNW,294,0.0,0.0,90,0.00,,,97.69,meteohub,2013-06-30 16:01:00,
2013-06-30 12:06:00,76.6,72.9,29.86,WNW,294,0.0,0.0,88,0.00,,,97.69,meteohub,2013-06-30 16:06:00,
2013-06-30 12:11:00,76.8,72.7,29.86,WNW,294,0.0,0.0,87,0.00,,,97.69,meteohub,2013-06-30 16:11:00,
2013-06-30 12:16:00,77.2,73.8,29.86,WNW,294,0.0,0.0,89,0.00,,,97.69,meteohub,2013-06-30 16:16:00,
2013-06-30 12:21:00,77.4,73.2,29.85,WNW,294,0.0,0.0,87,0.00,,,97.69,meteohub,2013-06-30 16:21:00,
2013-06-30 12:27:00,77.7,73.6,29.85,WNW,294,0.0,0.0,87,0.00,,,97.69,meteohub,2013-06-30 16:27:00,
2013-06-30 12:32:00,77.9,73.8,29.85,WNW,294,0.0,0.0,87,0.00,,,97.69,meteohub,2013-06-30 16:32:00,
2013-06-30 12:37:00,78.3,73.8,29.85,WNW,294,0.0,0.0,86,0.00,,,97.69,meteohub,2013-06-30 16:37:00,
2013-06-30 12:42:00,78.6,74.5,29.85,WNW,294,0.0,0.0,87,0.00,,,97.69,meteohub,2013-06-30 16:42:00,
2013-06-30 12:47:00,78.6,73.8,29.85,WNW,294,0.0,0.0,85,0.00,,,97.69,meteohub,2013-06-30 16:47:00,
2013-06-30 12:52:00,78.4,73.6,29.86,WNW,294,0.0,0.0,85,0.00,,,97.69,meteohub,2013-06-30 16:52:00,
2013-06-30 12:57:00,77.7,73.2,29.85,WNW,294,0.0,0.0,86,0.00,,,97.69,meteohub,2013-06-30 16:57:00,
2013-06-30 13:02:00,77.4,73.2,29.86,WNW,294,0.0,0.0,87,0.00,,,97.69,meteohub,2013-06-30 17:02:00,
2013-06-30 13:07:00,77.0,73.2,29.86,WNW,294,0.0,0.0,88,0.00,,,97.69,meteohub,2013-06-30 17:07:00,
2013-06-30 13:12:00,77.0,73.2,29.86,WNW,294,0.0,0.0,88,0.00,,,97.69,meteohub,2013-06-30 17:12:00,
2013-06-30 13:17:00,77.2,73.4,29.86,WNW,294,0.0,0.0,88,0.00,,,97.69,meteohub,2013-06-30 17:17:00,
2013-06-30 13:22:00,77.2,73.8,29.86,WNW,294,0.0,0.0,89,0.00,,,97.69,meteohub,2013-06-30 17:22:00,
2013-06-30 13:27:00,77.2,73.4,29.86,WNW,294,0.0,0.0,88,0.00,,,97.69,meteohub,2013-06-30 17:27:00,
2013-06-30 13:32:00,77.0,73.6,29.86,WNW,294,0.0,0.0,89,0.00,,,97.69,meteohub,2013-06-30 17:32:00,
2013-06-30 13:37:00,76.6,73.4,29.86,WNW,294,0.0,0.0,90,0.00,,,97.69,meteohub,2013-06-30 17:37:00,
2013-06-30 13:42:00,76.5,73.6,29.86,WNW,294,0.0,0.0,91,0.00,,,97.69,meteohub,2013-06-30 17:42:00,
2013-06-30 13:47:00,75.9,72.9,29.87,WNW,294,0.0,0.0,90,0.00,,,97.69,meteohub,2013-06-30 17:47:00,
2013-06-30 13:52:00,75.4,72.9,29.87,WNW,294,0.0,0.0,92,0.00,,,97.69,meteohub,2013-06-30 17:52:00,
2013-06-30 13:57:00,74.8,72.7,29.87,WNW,294,0.0,0.0,93,0.00,,,97.69,meteohub,2013-06-30 17:57:00,
2013-06-30 14:02:00,74.5,72.0,29.87,WNW,294,0.0,0.0,92,0.00,,,97.69,meteohub,2013-06-30 18:02:00,
2013-06-30 14:07:00,73.9,71.8,29.87,WNW,294,0.0,0.0,93,0.54,,,98.23,meteohub,2013-06-30 18:07:00,
2013-06-30 14:12:00,73.8,72.0,29.87,WNW,294,0.0,0.0,94,1.18,,,98.87,meteohub,2013-06-30 18:12:00,
2013-06-30 14:17:00,73.4,71.6,29.87,WNW,294,0.0,0.0,94,1.39,,,99.08,meteohub,2013-06-30 18:17:00,
2013-06-30 14:22:00,73.2,71.4,29.86,WNW,294,0.0,0.0,94,2.83,,,99.99,meteohub,2013-06-30 18:22:00,
2013-06-30 14:27:00,73.2,71.4,29.87,WNW,294,0.0,0.0,94,4.27,,,99.99,meteohub,2013-06-30 18:27:00,
2013-06-30 14:32:00,73.0,71.2,29.87,WNW,294,0.0,0.0,94,4.99,,,99.99,meteohub,2013-06-30 18:32:00,
2013-06-30 14:37:00,73.0,71.6,29.87,WNW,294,0.0,0.0,95,6.43,,,99.99,meteohub,2013-06-30 18:37:00,
2013-06-30 14:42:00,73.0,71.6,29.87,WNW,294,0.0,0.0,95,7.15,,,99.99,meteohub,2013-06-30 18:42:00,
2013-06-30 14:47:00,73.0,71.6,29.87,WNW,294,0.0,0.0,95,8.23,,,99.99,meteohub,2013-06-30 18:47:00,
2013-06-30 14:52:00,73.0,71.2,29.87,WNW,294,0.0,0.0,94,9.50,,,99.99,meteohub,2013-06-30 18:52:00,
2013-06-30 14:57:00,73.0,71.6,29.87,WNW,294,0.0,0.0,95,10.22,,,99.99,meteohub,2013-06-30 18:57:00,
2013-06-30 15:02:00,73.2,71.4,29.87,WNW,294,0.0,0.0,94,11.64,,,99.99,meteohub,2013-06-30 19:02:00,
2013-06-30 15:07:00,73.2,71.4,29.87,WNW,294,0.0,0.0,94,11.36,,,99.99,meteohub,2013-06-30 19:07:00,
2013-06-30 15:12:00,73.6,72.1,29.87,WNW,294,0.0,0.0,95,11.56,,,99.99,meteohub,2013-06-30 19:12:00,
2013-06-30 15:17:00,73.6,71.8,29.87,WNW,294,0.0,0.0,94,10.75,,,99.99,meteohub,2013-06-30 19:17:00,
2013-06-30 15:22:00,73.8,71.6,29.87,WNW,294,0.0,0.0,93,9.55,,,99.99,meteohub,2013-06-30 19:22:00,
2013-06-30 15:27:00,73.8,71.2,29.86,WNW,294,0.0,0.0,92,8.37,,,99.99,meteohub,2013-06-30 19:27:00,
2013-06-30 15:32:00,73.8,71.6,29.86,WNW,294,0.0,0.0,93,7.35,,,99.99,meteohub,2013-06-30 19:32:00,
2013-06-30 15:37:00,73.8,71.2,29.86,WNW,294,0.0,0.0,92,6.51,,,99.99,meteohub,2013-06-30 19:37:00,
2013-06-30 15:42:00,73.9,71.4,29.87,WNW,294,0.0,0.0,92,5.35,,,99.99,meteohub,2013-06-30 19:42:00,
2013-06-30 15:47:00,73.9,71.4,29.87,WNW,294,0.0,0.0,92,4.79,,,99.99,meteohub,2013-06-30 19:47:00,
2013-06-30 15:52:00,73.9,71.1,29.87,WNW,294,0.0,0.0,91,3.59,,,99.99,meteohub,2013-06-30 19:52:00,
2013-06-30 15:57:00,73.9,71.1,29.87,WNW,294,0.0,0.0,91,2.39,,,99.99,meteohub,2013-06-30 19:57:00,
2013-06-30 16:02:00,73.9,71.1,29.87,WNW,294,0.0,0.0,91,1.31,,,99.99,meteohub,2013-06-30 20:02:00,
2013-06-30 16:07:00,73.8,70.9,29.87,WNW,294,0.0,0.0,91,0.47,,,99.99,meteohub,2013-06-30 20:07:00,
2013-06-30 16:12:00,73.6,71.1,29.87,WNW,294,0.0,0.0,92,0.47,,,99.99,meteohub,2013-06-30 20:12:00,
2013-06-30 16:17:00,73.6,71.4,29.88,WNW,294,0.0,0.0,93,1.40,,,99.99,meteohub,2013-06-30 20:17:00,
2013-06-30 16:23:00,73.4,71.2,29.88,WNW,294,0.0,0.0,93,2.72,,,99.99,meteohub,2013-06-30 20:23:00,
2013-06-30 16:28:00,73.4,71.2,29.88,WNW,294,0.0,0.0,93,3.54,,,99.99,meteohub,2013-06-30 20:28:00,
2013-06-30 16:33:00,73.2,71.1,29.88,WNW,294,0.0,0.0,93,4.77,,,99.99,meteohub,2013-06-30 20:33:00,
2013-06-30 16:38:00,73.2,71.1,29.88,WNW,294,0.0,0.0,93,5.28,,,99.99,meteohub,2013-06-30 20:38:00,
2013-06-30 16:43:00,73.4,71.2,29.88,WNW,294,0.0,0.0,93,6.69,,,99.99,meteohub,2013-06-30 20:43:00,
2013-06-30 16:48:00,73.4,70.9,29.87,WNW,294,0.0,0.0,92,8.01,,,99.99,meteohub,2013-06-30 20:48:00,
2013-06-30 16:53:00,73.4,70.9,29.88,WNW,294,0.0,0.0,92,8.73,,,99.99,meteohub,2013-06-30 20:53:00,
2013-06-30 16:59:00,73.4,71.2,29.88,WNW,294,0.0,0.0,93,9.74,,,99.99,meteohub,2013-06-30 20:59:00,
2013-06-30 17:04:00,73.2,70.7,29.88,WNW,294,0.0,0.0,92,9.74,,,99.99,meteohub,2013-06-30 21:04:00,
2013-06-30 17:09:00,73.2,70.7,29.88,WNW,294,0.0,0.0,92,10.09,,,99.99,meteohub,2013-06-30 21:09:00,
2013-06-30 17:14:00,73.2,70.7,29.88,WNW,294,0.0,0.0,92,11.32,,,99.99,meteohub,2013-06-30 21:14:00,
2013-06-30 17:19:00,73.0,70.5,29.88,WNW,294,0.0,0.0,92,11.56,,,99.99,meteohub,2013-06-30 21:19:00,
2013-06-30 17:24:00,73.0,70.9,29.88,WNW,294,0.0,0.0,93,11.20,,,99.99,meteohub,2013-06-30 21:24:00,
2013-06-30 17:30:00,73.0,70.9,29.88,WNW,294,0.0,0.0,93,11.68,,,99.99,meteohub,2013-06-30 21:30:00,
2013-06-30 17:35:00,73.0,70.5,29.88,WNW,294,0.0,0.0,92,11.44,,,99.99,meteohub,2013-06-30 21:35:00,
2013-06-30 17:40:00,72.9,70.7,29.88,WNW,294,0.0,0.0,93,11.56,,,99.99,meteohub,2013-06-30 21:40:00,
2013-06-30 17:45:00,72.9,70.7,29.88,WNW,294,0.0,0.0,93,11.20,,,99.99,meteohub,2013-06-30 21:45:00,
2013-06-30 17:50:00,72.9,70.7,29.88,WNW,294,0.0,0.0,93,11.44,,,99.99,meteohub,2013-06-30 21:50:00,
2013-06-30 17:55:00,72.9,71.1,29.88,WNW,294,0.0,0.0,94,12.59,,,99.99,meteohub,2013-06-30 21:55:00,
2013-06-30 18:01:00,72.9,70.7,29.88,WNW,294,0.0,0.0,93,13.43,,,99.99,meteohub,2013-06-30 22:01:00,
2013-06-30 18:06:00,72.7,70.5,29.88,WNW,294,0.0,0.0,93,13.92,,,99.99,meteohub,2013-06-30 22:06:00,
2013-06-30 18:11:00,72.7,70.9,29.88,WNW,294,0.0,0.0,94,13.44,,,99.99,meteohub,2013-06-30 22:11:00,
2013-06-30 18:16:00,72.5,70.7,29.89,WNW,294,0.0,0.0,94,13.68,,,99.99,meteohub,2013-06-30 22:16:00,
2013-06-30 18:21:00,72.3,70.5,29.89,WNW,294,0.0,0.0,94,13.80,,,99.99,meteohub,2013-06-30 22:21:00,
2013-06-30 18:26:00,72.3,70.5,29.89,WNW,294,0.0,0.0,94,13.32,,,99.99,meteohub,2013-06-30 22:26:00,
2013-06-30 18:31:00,72.3,70.9,29.89,WNW,294,0.0,0.0,95,13.68,,,99.99,meteohub,2013-06-30 22:31:00,
2013-06-30 18:37:00,72.3,70.9,29.89,WNW,294,0.0,0.0,95,13.92,,,99.99,meteohub,2013-06-30 22:37:00,
2013-06-30 18:42:00,72.3,70.9,29.89,WNW,294,0.0,0.0,95,13.56,,,99.99,meteohub,2013-06-30 22:42:00,
2013-06-30 18:47:00,72.3,70.9,29.90,WNW,294,0.0,0.0,95,13.92,,,99.99,meteohub,2013-06-30 22:47:00,
2013-06-30 18:52:00,72.3,70.9,29.90,WNW,294,0.0,0.0,95,13.44,,,99.99,meteohub,2013-06-30 22:52:00,
2013-06-30 18:57:00,72.3,70.9,29.90,WNW,294,0.0,0.0,95,13.68,,,99.99,meteohub,2013-06-30 22:57:00,
2013-06-30 19:02:00,72.3,70.9,29.90,WNW,294,0.0,0.0,95,13.80,,,99.99,meteohub,2013-06-30 23:02:00,
2013-06-30 19:07:00,72.3,70.9,29.90,WNW,294,0.0,0.0,95,13.32,,,99.99,meteohub,2013-06-30 23:07:00,
2013-06-30 19:12:00,72.3,70.9,29.90,WNW,294,0.0,0.0,95,13.56,,,99.99,meteohub,2013-06-30 23:12:00,
2013-06-30 19:17:00,72.3,70.9,29.90,WNW,294,0.0,0.0,95,13.92,,,99.99,meteohub,2013-06-30 23:17:00,
2013-06-30 19:22:00,72.5,71.1,29.90,WNW,294,0.0,0.0,95,13.56,,,99.99,meteohub,2013-06-30 23:22:00,
2013-06-30 19:27:00,72.5,71.1,29.90,WNW,294,0.0,0.0,95,13.84,,,99.99,meteohub,2013-06-30 23:27:00,
2013-06-30 19:32:00,72.5,71.1,29.90,WNW,294,0.0,0.0,95,13.36,,,99.99,meteohub,2013-06-30 23:32:00,
2013-06-30 19:37:00,72.5,70.7,29.90,WNW,294,0.0,0.0,94,13.60,,,99.99,meteohub,2013-06-30 23:37:00,
2013-06-30 19:42:00,72.5,70.7,29.90,WNW,294,0.0,0.0,94,14.00,,,99.99,meteohub,2013-06-30 23:42:00,
2013-06-30 19:47:00,72.5,70.7,29.90,WNW,294,0.0,0.0,94,13.52,,,99.99,meteohub,2013-06-30 23:47:00,
2013-06-30 19:52:00,72.5,70.7,29.90,WNW,294,0.0,0.0,94,13.76,,,99.99,meteohub,2013-06-30 23:52:00,
2013-06-30 19:57:00,72.7,70.9,29.90,WNW,294,0.0,0.0,94,13.28,,,99.99,meteohub,2013-06-30 23:57:00,
2013-06-30 20:03:00,72.5,70.7,29.90,WNW,294,0.0,0.0,94,13.88,,,99.99,meteohub,2013-07-01 00:03:00,
2013-06-30 20:08:00,72.5,71.1,29.91,WNW,294,0.0,0.0,95,13.52,,,0.84,meteohub,2013-07-01 00:08:00,
2013-06-30 20:13:00,72.3,70.9,29.90,WNW,294,0.0,0.0,95,13.76,,,2.28,meteohub,2013-07-01 00:13:00,
2013-06-30 20:18:00,72.1,70.7,29.90,WNW,294,0.0,0.0,95,13.28,,,3.00,meteohub,2013-07-01 00:18:00,
2013-06-30 20:23:00,72.1,70.7,29.90,WNW,294,0.0,0.0,95,13.52,,,4.32,meteohub,2013-07-01 00:23:00,
2013-06-30 20:28:00,72.0,70.7,29.90,WNW,294,0.0,0.0,96,13.72,,,5.76,meteohub,2013-07-01 00:28:00,
2013-06-30 20:34:00,71.8,70.5,29.90,WNW,294,0.0,0.0,96,13.36,,,6.48,meteohub,2013-07-01 00:34:00,
2013-06-30 20:39:00,71.8,70.5,29.90,WNW,294,0.0,0.0,96,13.72,,,8.04,meteohub,2013-07-01 00:39:00,
2013-06-30 20:44:00,71.8,70.5,29.90,WNW,294,0.0,0.0,96,14.04,,,9.48,meteohub,2013-07-01 00:44:00,
2013-06-30 20:49:00,71.6,70.3,29.90,WNW,294,0.0,0.0,96,13.56,,,10.20,meteohub,2013-07-01 00:49:00,
2013-06-30 20:54:00,71.4,70.2,29.91,WNW,294,0.0,0.0,96,13.80,,,11.64,meteohub,2013-07-01 00:54:00,
2013-06-30 20:59:00,71.4,70.5,29.90,WNW,294,0.0,0.0,97,13.20,,,12.24,meteohub,2013-07-01 00:59:00,
2013-06-30 21:04:00,71.4,70.5,29.90,WNW,294,0.0,0.0,97,13.56,,,13.80,meteohub,2013-07-01 01:04:00,
2013-06-30 21:10:00,71.4,70.5,29.90,WNW,294,0.0,0.0,97,13.36,,,15.88,meteohub,2013-07-01 01:10:00,
2013-06-30 21:15:00,71.2,70.3,29.91,WNW,294,0.0,0.0,97,13.60,,,17.32,meteohub,2013-07-01 01:15:00,
2013-06-30 21:20:00,71.2,70.3,29.91,WNW,294,0.0,0.0,97,13.12,,,18.04,meteohub,2013-07-01 01:20:00,
2013-06-30 21:25:00,71.2,70.3,29.91,WNW,294,0.0,0.0,97,13.60,,,19.60,meteohub,2013-07-01 01:25:00,
2013-06-30 21:30:00,71.2,70.3,29.91,WNW,294,0.0,0.0,97,13.96,,,21.04,meteohub,2013-07-01 01:30:00,
2013-06-30 21:36:00,71.1,70.2,29.91,WNW,294,0.0,0.0,97,13.36,,,21.76,meteohub,2013-07-01 01:36:00,
2013-06-30 21:41:00,71.1,70.2,29.91,WNW,294,0.0,0.0,97,13.60,,,23.08,meteohub,2013-07-01 01:41:00,
2013-06-30 21:46:00,71.1,70.2,29.92,WNW,294,0.0,0.0,97,13.84,,,24.52,meteohub,2013-07-01 01:46:00,
2013-06-30 21:51:00,71.1,70.2,29.92,WNW,294,0.0,0.0,97,13.36,,,25.24,meteohub,2013-07-01 01:51:00,
2013-06-30 21:56:00,70.9,70.0,29.92,WNW,294,0.0,0.0,97,13.60,,,26.68,meteohub,2013-07-01 01:56:00,
2013-06-30 22:01:00,70.9,70.3,29.92,WNW,294,0.0,0.0,98,13.96,,,28.12,meteohub,2013-07-01 02:01:00,
2013-06-30 22:07:00,70.9,70.3,29.93,WNW,294,0.0,0.0,98,13.44,,,28.84,meteohub,2013-07-01 02:07:00,
2013-06-30 22:12:00,70.9,70.3,29.93,WNW,294,0.0,0.0,98,13.68,,,30.28,meteohub,2013-07-01 02:12:00,
2013-06-30 22:17:00,70.9,70.3,29.93,WNW,294,0.0,0.0,98,13.20,,,31.00,meteohub,2013-07-01 02:17:00,
2013-06-30 22:22:00,70.9,70.3,29.93,WNW,294,0.0,0.0,98,13.56,,,32.44,meteohub,2013-07-01 02:22:00,
2013-06-30 22:27:00,70.9,70.3,29.93,WNW,294,0.0,0.0,98,13.80,,,33.88,meteohub,2013-07-01 02:27:00,
2013-06-30 22:32:00,70.9,70.3,29.93,WNW,294,0.0,0.0,98,13.32,,,34.60,meteohub,2013-07-01 02:32:00,
2013-06-30 22:37:00,70.9,70.3,29.93,WNW,294,0.0,0.0,98,13.68,,,36.04,meteohub,2013-07-01 02:37:00,
2013-06-30 22:42:00,70.9,70.3,29.93,WNW,294,0.0,0.0,98,13.20,,,36.76,meteohub,2013-07-01 02:42:00,
2013-06-30 22:47:00,70.9,70.3,29.93,WNW,294,0.0,0.0,98,13.56,,,38.32,meteohub,2013-07-01 02:47:00,
2013-06-30 22:52:00,70.9,70.3,29.93,WNW,294,0.0,0.0,98,13.72,,,39.68,meteohub,2013-07-01 02:52:00,
2013-06-30 22:57:00,70.9,70.3,29.93,WNW,294,0.0,0.0,98,13.24,,,40.40,meteohub,2013-07-01 02:57:00,
2013-06-30 23:02:00,71.1,70.5,29.93,WNW,294,0.0,0.0,98,13.60,,,41.84,meteohub,2013-07-01 03:02:00,
2013-06-30 23:07:00,71.1,70.5,29.93,WNW,294,0.0,0.0,98,13.96,,,43.40,meteohub,2013-07-01 03:07:00,
2013-06-30 23:12:00,71.1,70.5,29.93,WNW,294,0.0,0.0,98,13.48,,,44.12,meteohub,2013-07-01 03:12:00,
2013-06-30 23:17:00,71.1,70.5,29.93,WNW,294,0.0,0.0,98,13.72,,,45.56,meteohub,2013-07-01 03:17:00,
2013-06-30 23:22:00,71.1,70.5,29.93,WNW,294,0.0,0.0,98,13.24,,,46.16,meteohub,2013-07-01 03:22:00,
2013-06-30 23:27:00,71.1,70.5,29.94,WNW,294,0.0,0.0,98,13.48,,,47.60,meteohub,2013-07-01 03:27:00,
2013-06-30 23:32:00,71.1,70.5,29.94,WNW,294,0.0,0.0,98,13.84,,,49.16,meteohub,2013-07-01 03:32:00,
2013-06-30 23:37:00,71.1,70.5,29.94,WNW,294,0.0,0.0,98,13.36,,,49.88,meteohub,2013-07-01 03:37:00,
2013-06-30 23:42:00,71.1,70.5,29.94,WNW,294,0.0,0.0,98,13.72,,,51.32,meteohub,2013-07-01 03:42:00,
2013-06-30 23:47:00,71.1,70.5,29.94,WNW,294,0.0,0.0,98,13.92,,,52.76,meteohub,2013-07-01 03:47:00,
2013-06-30 23:52:00,71.1,70.5,29.94,WNW,294,0.0,0.0,98,13.44,,,53.48,meteohub,2013-07-01 03:52:00,
2013-06-30 23:57:00,71.1,70.5,29.94,WNW,294,0.0,0.0,98,13.80,,,54.92,meteohub,2013-07-01 03:57:00,